Time,TemperatureF,DewpointF,PressureIn,WindDirection,WindDirectionDegrees,WindSpeedMPH,WindSpeedGustMPH,Humidity,HourlyPrecipIn,Conditions,Clouds,dailyrainin,SolarRadiationWatts/m^2,SoftwareType,DateUTC
2013-01-25 00:00:00,15.5,1.0,30.48,NW,323,3.0,8.0,52,0.00,,,0.00,0,Wunderground v.1.15,2013-01-25 05:00:00,
2013-01-25 00:04:00,15.4,0.9,30.48,WSW,257,5.0,8.0,52,0.00,,,0.00,0,Wunderground v.1.15,2013-01-25 05:04:00,
2013-01-25 00:05:00,15.4,0.9,30.48,WNW,286,4.0,8.0,52,0.00,,,0.00,0,Wunderground v.1.15,2013-01-25 05:05:00,
2013-01-25 00:11:00,15.3,0.8,30.48,NW,319,4.0,5.0,52,0.00,,,0.00,0,Wunderground v.1.15,2013-01-25 05:11:00,
2013-01-25 00:12:00,15.3,0.0,30.48,NW,318,7.0,13.0,52,0.00,,,0.00,0,weatherlink.com 1.10,2013-01-25 05:12:00,
2013-01-25 00:18:00,15.3,1.2,30.48,West,263,6.0,9.0,53,0.00,,,0.00,0,Wunderground v.1.15,2013-01-25 05:18:00,
2013-01-25 00:23:00,15.2,1.1,30.48,NW,315,5.0,7.0,53,0.00,,,0.00,0,Wunderground v.1.15,2013-01-25 05:23:00,
2013-01-25 00:28:00,15.1,1.4,30.48,NW,319,4.0,7.0,54,0.00,,,0.00,0,Wunderground v.1.15,2013-01-25 05:28:00,
2013-01-25 00:34:00,15.1,1.4,30.48,WNW,301,4.0,7.0,54,0.00,,,0.00,0,Wunderground v.1.15,2013-01-25 05:34:00,
2013-01-25 00:39:00,15.1,1.4,30.48,NNW,327,7.0,9.0,54,0.00,,,0.00,0,Wunderground v.1.15,2013-01-25 05:39:00,
2013-01-25 00:45:00,15.0,0.9,30.48,NNE,32,7.0,14.0,53,0.00,,,0.00,0,Wunderground v.1.15,2013-01-25 05:45:00,
2013-01-25 00:51:00,15.0,1.3,30.48,WNW,283,5.0,6.0,54,0.00,,,0.00,0,Wunderground v.1.15,2013-01-25 05:51:00,
2013-01-25 00:56:00,14.8,0.7,30.48,NW,309,6.0,11.0,53,0.00,,,0.00,0,Wunderground v.1.15,2013-01-25 05:56:00,
2013-01-25 01:02:00,14.8,1.1,30.48,WNW,283,6.0,10.0,54,0.00,,,0.00,0,Wunderground v.1.15,2013-01-25 06:02:00,
2013-01-25 01:07:00,14.7,1.0,30.48,NW,323,1.0,10.0,54,0.00,,,0.00,0,Wunderground v.1.15,2013-01-25 06:07:00,
2013-01-25 01:12:00,14.6,0.9,30.48,NW,304,10.0,10.0,54,0.00,,,0.00,0,Wunderground v.1.15,2013-01-25 06:12:00,
2013-01-25 01:18:00,14.6,0.9,30.48,NW,313,6.0,10.0,54,0.00,,,0.00,0,Wunderground v.1.15,2013-01-25 06:18:00,
2013-01-25 01:23:00,14.5,1.2,30.48,NW,316,6.0,9.0,55,0.00,,,0.00,0,Wunderground v.1.15,2013-01-25 06:23:00,
2013-01-25 01:28:00,14.5,1.6,30.49,WNW,291,5.0,9.0,56,0.00,,,0.00,0,Wunderground v.1.15,2013-01-25 06:28:00,
2013-01-25 01:35:00,14.4,1.5,30.49,WNW,286,3.0,9.0,56,0.00,,,0.00,0,Wunderground v.1.15,2013-01-25 06:35:00,
2013-01-25 01:41:00,14.4,1.5,30.49,NW,316,4.0,6.0,56,0.00,,,0.00,0,Wunderground v.1.15,2013-01-25 06:41:00,
2013-01-25 01:46:00,14.4,1.9,30.49,NNW,329,6.0,11.0,57,0.00,,,0.00,0,Wunderground v.1.15,2013-01-25 06:46:00,
2013-01-25 01:52:00,14.3,1.8,30.49,South,182,2.0,6.0,57,0.00,,,0.00,0,Wunderground v.1.15,2013-01-25 06:52:00,
2013-01-25 01:57:00,14.1,2.0,30.49,NW,322,4.0,9.0,58,0.00,,,0.00,0,weatherlink.com 1.10,2013-01-25 06:57:00,
2013-01-25 02:02:00,14.1,2.0,30.50,WNW,302,3.0,7.0,58,0.00,,,0.00,0,Wunderground v.1.15,2013-01-25 07:02:00,
2013-01-25 02:08:00,14.1,2.0,30.50,NNW,327,3.0,11.0,58,0.00,,,0.00,0,Wunderground v.1.15,2013-01-25 07:08:00,
2013-01-25 02:14:00,14.0,2.3,30.50,NW,309,7.0,15.0,59,0.00,,,0.00,0,Wunderground v.1.15,2013-01-25 07:14:00,
2013-01-25 02:19:00,14.1,2.4,30.50,NW,315,2.0,15.0,59,0.00,,,0.00,0,Wunderground v.1.15,2013-01-25 07:19:00,
2013-01-25 02:24:00,14.0,2.7,30.50,NNE,27,5.0,10.0,60,0.00,,,0.00,0,Wunderground v.1.15,2013-01-25 07:24:00,
2013-01-25 02:29:00,14.0,2.7,30.50,WNW,282,7.0,14.0,60,0.00,,,0.00,0,Wunderground v.1.15,2013-01-25 07:29:00,
2013-01-25 02:34:00,13.9,2.6,30.49,NNE,13,8.0,9.0,60,0.00,,,0.00,0,Wunderground v.1.15,2013-01-25 07:34:00,
2013-01-25 02:39:00,13.9,2.6,30.49,NNW,329,3.0,9.0,60,0.00,,,0.00,0,Wunderground v.1.15,2013-01-25 07:39:00,
2013-01-25 02:44:00,13.9,2.9,30.50,SW,233,6.0,11.0,61,0.00,,,0.00,0,Wunderground v.1.15,2013-01-25 07:44:00,
2013-01-25 02:49:00,14.0,2.7,30.49,WNW,296,1.0,14.0,60,0.00,,,0.00,0,Wunderground v.1.15,2013-01-25 07:49:00,
2013-01-25 02:54:00,13.9,2.9,30.49,WNW,285,6.0,7.0,61,0.00,,,0.00,0,Wunderground v.1.15,2013-01-25 07:54:00,
2013-01-25 02:59:00,13.9,3.3,30.49,NW,304,6.0,6.0,62,0.00,,,0.00,0,Wunderground v.1.15,2013-01-25 07:59:00,
2013-01-25 03:04:00,13.9,3.3,30.49,NW,313,1.0,10.0,62,0.00,,,0.00,0,Wunderground v.1.15,2013-01-25 08:04:00,
2013-01-25 03:09:00,13.8,3.2,30.49,WNW,284,6.0,6.0,62,0.00,,,0.00,0,Wunderground v.1.15,2013-01-25 08:09:00,
2013-01-25 03:14:00,13.9,3.3,30.49,WNW,300,4.0,11.0,62,0.00,,,0.00,0,Wunderground v.1.15,2013-01-25 08:14:00,
2013-01-25 03:19:00,13.9,3.3,30.48,WNW,286,1.0,5.0,62,0.00,,,0.00,0,Wunderground v.1.15,2013-01-25 08:19:00,
2013-01-25 03:25:00,13.9,3.3,30.48,WNW,296,7.0,9.0,62,0.00,,,0.00,0,Wunderground v.1.15,2013-01-25 08:25:00,
2013-01-25 03:30:00,14.0,3.0,30.48,West,274,1.0,6.0,61,0.00,,,0.00,0,Wunderground v.1.15,2013-01-25 08:30:00,
2013-01-25 03:35:00,13.9,2.9,30.48,NNW,344,2.0,9.0,61,0.00,,,0.00,0,Wunderground v.1.15,2013-01-25 08:35:00,
2013-01-25 03:40:00,13.9,3.3,30.49,NW,325,4.0,7.0,62,0.00,,,0.00,0,Wunderground v.1.15,2013-01-25 08:40:00,
2013-01-25 03:45:00,13.9,3.3,30.49,West,265,3.0,8.0,62,0.00,,,0.00,0,Wunderground v.1.15,2013-01-25 08:45:00,
2013-01-25 03:50:00,13.9,3.3,30.49,SW,216,0.0,5.0,62,0.00,,,0.00,0,Wunderground v.1.15,2013-01-25 08:50:00,
2013-01-25 03:55:00,13.9,2.9,30.49,WNW,288,4.0,8.0,61,0.00,,,0.00,0,Wunderground v.1.15,2013-01-25 08:55:00,
2013-01-25 04:00:00,13.8,3.2,30.49,WNW,284,5.0,5.0,62,0.00,,,0.00,0,Wunderground v.1.15,2013-01-25 09:00:00,
2013-01-25 04:05:00,13.8,2.8,30.49,NW,317,8.0,10.0,61,0.00,,,0.00,0,Wunderground v.1.15,2013-01-25 09:05:00,
2013-01-25 04:10:00,13.9,2.9,30.49,NW,308,10.0,10.0,61,0.00,,,0.00,0,Wunderground v.1.15,2013-01-25 09:10:00,
2013-01-25 04:15:00,13.9,2.9,30.49,NW,315,4.0,10.0,61,0.00,,,0.00,0,Wunderground v.1.15,2013-01-25 09:15:00,
2013-01-25 04:20:00,14.0,3.0,30.49,WNW,302,5.0,5.0,61,0.00,,,0.00,0,Wunderground v.1.15,2013-01-25 09:20:00,
2013-01-25 04:25:00,14.0,2.7,30.49,WSW,252,11.0,15.0,60,0.00,,,0.00,0,Wunderground v.1.15,2013-01-25 09:25:00,
2013-01-25 04:30:00,14.0,2.7,30.49,West,279,4.0,7.0,60,0.00,,,0.00,0,Wunderground v.1.15,2013-01-25 09:30:00,
2013-01-25 04:35:00,13.9,2.9,30.49,West,269,6.0,10.0,61,0.00,,,0.00,0,Wunderground v.1.15,2013-01-25 09:35:00,
2013-01-25 04:41:00,14.0,3.0,30.49,West,265,3.0,5.0,61,0.00,,,0.00,0,Wunderground v.1.15,2013-01-25 09:41:00,
2013-01-25 04:46:00,14.0,3.0,30.50,WSW,257,6.0,10.0,61,0.00,,,0.00,0,Wunderground v.1.15,2013-01-25 09:46:00,
2013-01-25 04:51:00,13.9,2.9,30.50,West,275,8.0,10.0,61,0.00,,,0.00,0,Wunderground v.1.15,2013-01-25 09:51:00,
2013-01-25 04:56:00,14.0,3.0,30.49,WNW,286,3.0,10.0,61,0.00,,,0.00,0,Wunderground v.1.15,2013-01-25 09:56:00,
2013-01-25 05:01:00,14.0,3.0,30.49,NW,307,2.0,13.0,61,0.00,,,0.00,0,Wunderground v.1.15,2013-01-25 10:01:00,
2013-01-25 05:06:00,14.0,3.0,30.49,WSW,258,2.0,13.0,61,0.00,,,0.00,0,Wunderground v.1.15,2013-01-25 10:06:00,
2013-01-25 05:11:00,13.9,2.9,30.49,West,278,1.0,4.0,61,0.00,,,0.00,0,Wunderground v.1.15,2013-01-25 10:11:00,
2013-01-25 05:16:00,13.8,3.2,30.50,WNW,299,2.0,4.0,62,0.00,,,0.00,0,Wunderground v.1.15,2013-01-25 10:16:00,
2013-01-25 05:21:00,13.7,3.1,30.49,NNW,340,2.0,8.0,62,0.00,,,0.00,0,Wunderground v.1.15,2013-01-25 10:21:00,
2013-01-25 05:26:00,13.7,3.1,30.49,NNW,335,5.0,8.0,62,0.00,,,0.00,0,Wunderground v.1.15,2013-01-25 10:26:00,
2013-01-25 05:31:00,13.6,3.3,30.49,WNW,302,3.0,5.0,63,0.00,,,0.00,0,Wunderground v.1.15,2013-01-25 10:31:00,
2013-01-25 05:36:00,13.6,3.3,30.50,West,266,1.0,6.0,63,0.00,,,0.00,0,Wunderground v.1.15,2013-01-25 10:36:00,
2013-01-25 05:41:00,13.7,3.4,30.49,West,279,8.0,8.0,63,0.00,,,0.00,0,Wunderground v.1.15,2013-01-25 10:41:00,
2013-01-25 05:46:00,13.7,3.4,30.49,WNW,296,2.0,10.0,63,0.00,,,0.00,0,Wunderground v.1.15,2013-01-25 10:46:00,
2013-01-25 05:51:00,13.8,3.5,30.49,WNW,286,2.0,5.0,63,0.00,,,0.00,0,Wunderground v.1.15,2013-01-25 10:51:00,
2013-01-25 05:56:00,13.8,3.2,30.49,WNW,286,1.0,7.0,62,0.00,,,0.00,0,Wunderground v.1.15,2013-01-25 10:56:00,
2013-01-25 06:01:00,13.9,3.6,30.49,West,272,1.0,6.0,63,0.00,,,0.00,0,Wunderground v.1.15,2013-01-25 11:01:00,
2013-01-25 06:06:00,13.9,3.6,30.50,West,269,3.0,9.0,63,0.00,,,0.00,0,Wunderground v.1.15,2013-01-25 11:06:00,
2013-01-25 06:11:00,13.9,3.6,30.49,WNW,284,7.0,7.0,63,0.00,,,0.00,0,Wunderground v.1.15,2013-01-25 11:11:00,
2013-01-25 06:16:00,13.9,3.6,30.49,WNW,285,6.0,9.0,63,0.00,,,0.00,0,Wunderground v.1.15,2013-01-25 11:16:00,
2013-01-25 06:21:00,13.9,3.6,30.50,NW,308,5.0,9.0,63,0.00,,,0.00,0,Wunderground v.1.15,2013-01-25 11:21:00,
2013-01-25 06:27:00,13.9,4.0,30.50,WNW,302,3.0,9.0,64,0.00,,,0.00,0,Wunderground v.1.15,2013-01-25 11:27:00,
2013-01-25 06:32:00,13.9,4.0,30.49,WNW,294,0.0,7.0,64,0.00,,,0.00,0,Wunderground v.1.15,2013-01-25 11:32:00,
2013-01-25 06:37:00,13.8,4.2,30.50,NW,309,1.0,9.0,65,0.00,,,0.00,0,Wunderground v.1.15,2013-01-25 11:37:00,
2013-01-25 06:42:00,13.7,3.8,30.50,WNW,295,2.0,5.0,64,0.00,,,0.00,0,Wunderground v.1.15,2013-01-25 11:42:00,
2013-01-25 06:47:00,13.8,3.9,30.50,WNW,284,2.0,6.0,64,0.00,,,0.00,0,Wunderground v.1.15,2013-01-25 11:47:00,
2013-01-25 06:52:00,13.8,3.9,30.50,NW,309,3.0,5.0,64,0.00,,,0.00,0,Wunderground v.1.15,2013-01-25 11:52:00,
2013-01-25 06:57:00,13.9,4.0,30.50,WNW,284,1.0,5.0,64,0.00,,,0.00,0,Wunderground v.1.15,2013-01-25 11:57:00,
2013-01-25 07:02:00,13.9,4.3,30.50,West,273,3.0,3.0,65,0.00,,,0.00,0,Wunderground v.1.15,2013-01-25 12:02:00,
2013-01-25 07:07:00,13.9,4.3,30.50,NNE,19,2.0,7.0,65,0.00,,,0.00,0,Wunderground v.1.15,2013-01-25 12:07:00,
2013-01-25 07:12:00,14.0,4.1,30.50,West,277,2.0,5.0,64,0.00,,,0.00,0,Wunderground v.1.15,2013-01-25 12:12:00,
2013-01-25 07:17:00,14.1,4.1,30.51,West,277,2.0,5.0,64,0.00,,,0.00,5,Wunderground v.1.15,2013-01-25 12:17:00,
2013-01-25 07:22:00,14.1,4.1,30.50,WNW,293,2.0,2.0,64,0.00,,,0.00,7,Wunderground v.1.15,2013-01-25 12:22:00,
2013-01-25 07:27:00,14.0,4.4,30.50,WSW,250,2.0,4.0,65,0.00,,,0.00,11,Wunderground v.1.15,2013-01-25 12:27:00,
2013-01-25 07:32:00,14.0,4.4,30.50,West,271,2.0,5.0,65,0.00,,,0.00,16,Wunderground v.1.15,2013-01-25 12:32:00,
2013-01-25 07:38:00,14.0,4.4,30.50,WNW,283,3.0,5.0,65,0.00,,,0.00,23,Wunderground v.1.15,2013-01-25 12:38:00,
2013-01-25 07:44:00,14.1,4.1,30.50,WNW,284,3.0,6.0,64,0.00,,,0.00,28,Wunderground v.1.15,2013-01-25 12:44:00,
2013-01-25 07:49:00,14.2,4.6,30.49,WNW,286,0.0,2.0,65,0.00,,,0.00,33,Wunderground v.1.15,2013-01-25 12:49:00,
2013-01-25 07:54:00,14.2,4.6,30.49,WNW,298,4.0,6.0,65,0.00,,,0.00,37,Wunderground v.1.15,2013-01-25 12:54:00,
2013-01-25 07:59:00,14.4,4.4,30.49,West,279,2.0,2.0,64,0.00,,,0.00,42,Wunderground v.1.15,2013-01-25 12:59:00,
2013-01-25 08:04:00,14.4,4.8,30.49,WNW,286,3.0,3.0,65,0.00,,,0.00,51,Wunderground v.1.15,2013-01-25 13:04:00,
2013-01-25 08:09:00,14.6,5.0,30.49,NNW,337,3.0,3.0,65,0.00,,,0.00,58,Wunderground v.1.15,2013-01-25 13:09:00,
2013-01-25 08:15:00,14.7,5.1,30.48,NNE,19,3.0,6.0,65,0.00,,,0.00,62,Wunderground v.1.15,2013-01-25 13:15:00,
2013-01-25 08:20:00,14.9,5.2,30.48,NW,304,2.0,3.0,65,0.00,,,0.00,65,Wunderground v.1.15,2013-01-25 13:20:00,
2013-01-25 08:25:00,14.9,4.9,30.48,North,360,0.0,5.0,64,0.00,,,0.00,70,Wunderground v.1.15,2013-01-25 13:25:00,
2013-01-25 08:30:00,15.0,5.0,30.48,NW,314,2.0,2.0,64,0.00,,,0.00,77,Wunderground v.1.15,2013-01-25 13:30:00,
2013-01-25 08:35:00,15.1,5.1,30.49,WNW,293,2.0,5.0,64,0.00,,,0.00,81,Wunderground v.1.15,2013-01-25 13:35:00,
2013-01-25 08:40:00,15.2,5.2,30.49,North,360,3.0,3.0,64,0.00,,,0.00,84,Wunderground v.1.15,2013-01-25 13:40:00,
2013-01-25 08:45:00,15.1,4.8,30.49,WNW,290,3.0,4.0,63,0.00,,,0.00,90,Wunderground v.1.15,2013-01-25 13:45:00,
2013-01-25 08:50:00,15.2,4.9,30.50,NW,313,1.0,4.0,63,0.00,,,0.00,91,Wunderground v.1.15,2013-01-25 13:50:00,
2013-01-25 08:55:00,15.4,5.0,30.50,WNW,296,4.0,6.0,63,0.00,,,0.00,97,Wunderground v.1.15,2013-01-25 13:55:00,
2013-01-25 09:00:00,15.4,5.0,30.49,West,279,5.0,5.0,63,0.00,,,0.00,98,Wunderground v.1.15,2013-01-25 14:00:00,
2013-01-25 09:05:00,15.5,5.1,30.50,NNW,330,5.0,8.0,63,0.00,,,0.00,105,Wunderground v.1.15,2013-01-25 14:05:00,
2013-01-25 09:10:00,15.7,5.3,30.49,NW,305,4.0,5.0,63,0.00,,,0.00,111,Wunderground v.1.15,2013-01-25 14:10:00,
2013-01-25 09:15:00,15.7,5.3,30.50,NW,324,1.0,6.0,63,0.00,,,0.00,116,Wunderground v.1.15,2013-01-25 14:15:00,
2013-01-25 09:20:00,16.1,5.7,30.50,SSW,209,1.0,2.0,63,0.00,,,0.00,128,Wunderground v.1.15,2013-01-25 14:20:00,
2013-01-25 09:25:00,16.2,5.5,30.50,NW,320,2.0,3.0,62,0.00,,,0.00,134,Wunderground v.1.15,2013-01-25 14:25:00,
2013-01-25 09:30:00,16.1,5.0,30.50,West,278,0.0,3.0,61,0.00,,,0.00,128,Wunderground v.1.15,2013-01-25 14:30:00,
2013-01-25 09:35:00,16.2,5.5,30.50,NW,324,2.0,5.0,62,0.00,,,0.00,134,Wunderground v.1.15,2013-01-25 14:35:00,
2013-01-25 09:40:00,16.4,6.0,30.50,WNW,290,2.0,3.0,63,0.00,,,0.00,132,Wunderground v.1.15,2013-01-25 14:40:00,
2013-01-25 09:46:00,16.5,5.7,30.50,NNE,13,2.0,4.0,62,0.00,,,0.00,132,Wunderground v.1.15,2013-01-25 14:46:00,
2013-01-25 09:50:00,16.5,5.7,30.50,NW,308,2.0,3.0,62,0.00,,,0.00,148,Wunderground v.1.15,2013-01-25 14:50:00,
2013-01-25 09:55:00,16.5,5.7,30.50,West,267,0.0,5.0,62,0.00,,,0.00,178,Wunderground v.1.15,2013-01-25 14:55:00,
2013-01-25 10:00:00,16.8,6.0,30.50,WNW,292,4.0,5.0,62,0.00,,,0.00,192,Wunderground v.1.15,2013-01-25 15:00:00,
2013-01-25 10:05:00,17.0,6.2,30.50,NW,305,1.0,5.0,62,0.00,,,0.00,197,Wunderground v.1.15,2013-01-25 15:05:00,
2013-01-25 10:10:00,17.3,5.8,30.50,NW,321,5.0,5.0,60,0.00,,,0.00,207,Wunderground v.1.15,2013-01-25 15:10:00,
2013-01-25 10:16:00,17.5,6.0,30.51,North,355,1.0,6.0,60,0.00,,,0.00,206,Wunderground v.1.15,2013-01-25 15:16:00,
2013-01-25 10:21:00,17.6,5.7,30.51,WNW,285,2.0,5.0,59,0.00,,,0.00,192,Wunderground v.1.15,2013-01-25 15:21:00,
2013-01-25 10:26:00,17.5,5.6,30.51,West,269,3.0,7.0,59,0.00,,,0.00,243,Wunderground v.1.15,2013-01-25 15:26:00,
2013-01-25 10:31:00,17.4,5.9,30.50,WNW,283,2.0,4.0,60,0.00,,,0.00,225,Wunderground v.1.15,2013-01-25 15:31:00,
2013-01-25 10:36:00,18.0,6.8,30.50,NE,36,4.0,5.0,61,0.00,,,0.00,225,Wunderground v.1.15,2013-01-25 15:36:00,
2013-01-25 10:41:00,18.1,6.5,30.49,West,275,0.0,3.0,60,0.00,,,0.00,225,Wunderground v.1.15,2013-01-25 15:41:00,
2013-01-25 10:46:00,17.8,5.9,30.49,WNW,287,0.0,3.0,59,0.00,,,0.00,200,Wunderground v.1.15,2013-01-25 15:46:00,
2013-01-25 10:51:00,18.0,6.1,30.49,WNW,294,2.0,5.0,59,0.00,,,0.00,239,Wunderground v.1.15,2013-01-25 15:51:00,
2013-01-25 10:56:00,18.4,6.1,30.49,WNW,288,1.0,5.0,58,0.00,,,0.00,253,Wunderground v.1.15,2013-01-25 15:56:00,
2013-01-25 11:01:00,18.4,6.1,30.48,NW,308,1.0,6.0,58,0.00,,,0.00,281,Wunderground v.1.15,2013-01-25 16:01:00,
2013-01-25 11:06:00,18.6,5.9,30.48,WNW,284,3.0,6.0,57,0.00,,,0.00,290,Wunderground v.1.15,2013-01-25 16:06:00,
2013-01-25 11:11:00,18.7,5.6,30.48,NNW,330,2.0,3.0,56,0.00,,,0.00,315,Wunderground v.1.15,2013-01-25 16:11:00,
2013-01-25 11:16:00,19.2,6.8,30.47,North,11,2.0,9.0,58,0.00,,,0.00,327,Wunderground v.1.15,2013-01-25 16:16:00,
2013-01-25 11:21:00,19.0,5.1,30.46,North,10,3.0,3.0,54,0.00,,,0.00,316,Wunderground v.1.15,2013-01-25 16:21:00,
2013-01-25 11:26:00,19.5,5.9,30.45,NNE,29,2.0,5.0,55,0.00,,,0.00,338,Wunderground v.1.15,2013-01-25 16:26:00,
2013-01-25 11:31:00,19.4,5.8,30.45,West,272,2.0,3.0,55,0.00,,,0.00,371,Wunderground v.1.15,2013-01-25 16:31:00,
2013-01-25 11:36:00,19.7,6.1,30.44,NNW,341,2.0,5.0,55,0.00,,,0.00,429,Wunderground v.1.15,2013-01-25 16:36:00,
2013-01-25 11:41:00,21.1,6.6,30.44,NNW,329,1.0,3.0,53,0.00,,,0.00,429,Wunderground v.1.15,2013-01-25 16:41:00,
2013-01-25 11:46:00,20.4,5.1,30.44,NNW,334,1.0,5.0,51,0.00,,,0.00,454,Wunderground v.1.15,2013-01-25 16:46:00,
2013-01-25 11:51:00,20.7,5.4,30.43,West,264,1.0,4.0,51,0.00,,,0.00,450,Wunderground v.1.15,2013-01-25 16:51:00,
2013-01-25 11:56:00,19.9,5.1,30.43,SE,136,1.0,4.0,52,0.00,,,0.00,413,Wunderground v.1.15,2013-01-25 16:56:00,
2013-01-25 12:01:00,21.5,7.0,30.43,WNW,296,1.0,3.0,53,0.00,,,0.00,348,Wunderground v.1.15,2013-01-25 17:01:00,
2013-01-25 12:06:00,22.0,7.0,30.42,NNW,338,4.0,4.0,52,0.00,,,0.00,287,Wunderground v.1.15,2013-01-25 17:06:00,
2013-01-25 12:11:00,21.3,6.4,30.41,NE,47,3.0,4.0,52,0.00,,,0.00,255,Wunderground v.1.15,2013-01-25 17:11:00,
2013-01-25 12:16:00,20.5,6.5,30.41,North,5,5.0,6.0,54,0.00,,,0.00,267,Wunderground v.1.15,2013-01-25 17:16:00,
2013-01-25 12:21:00,20.4,6.4,30.41,NNE,13,2.0,3.0,54,0.00,,,0.00,295,Wunderground v.1.15,2013-01-25 17:21:00,
2013-01-25 12:26:00,20.9,6.4,30.40,North,355,1.0,4.0,53,0.00,,,0.00,295,Wunderground v.1.15,2013-01-25 17:26:00,
2013-01-25 12:31:00,21.8,6.8,30.40,North,360,3.0,5.0,52,0.00,,,0.00,341,Wunderground v.1.15,2013-01-25 17:31:00,
2013-01-25 12:36:00,21.6,6.2,30.40,NNW,331,2.0,5.0,51,0.00,,,0.00,315,Wunderground v.1.15,2013-01-25 17:36:00,
2013-01-25 12:41:00,20.8,5.5,30.40,North,355,4.0,4.0,51,0.00,,,0.00,278,Wunderground v.1.15,2013-01-25 17:41:00,
2013-01-25 12:46:00,21.5,6.1,30.39,North,5,3.0,4.0,51,0.00,,,0.00,244,Wunderground v.1.15,2013-01-25 17:46:00,
2013-01-25 12:51:00,21.2,5.0,30.39,North,355,2.0,3.0,49,0.00,,,0.00,223,Wunderground v.1.15,2013-01-25 17:51:00,
2013-01-25 12:56:00,21.6,5.8,30.38,NNW,331,3.0,3.0,50,0.00,,,0.00,220,Wunderground v.1.15,2013-01-25 17:56:00,
2013-01-25 13:01:00,21.3,4.6,30.38,NNE,19,1.0,2.0,48,0.00,,,0.00,223,Wunderground v.1.15,2013-01-25 18:01:00,
2013-01-25 13:06:00,21.9,5.6,30.38,North,355,1.0,4.0,49,0.00,,,0.00,236,Wunderground v.1.15,2013-01-25 18:06:00,
2013-01-25 13:11:00,22.0,5.3,30.38,NW,306,5.0,5.0,48,0.00,,,0.00,230,Wunderground v.1.15,2013-01-25 18:11:00,
2013-01-25 13:16:00,22.6,5.8,30.37,WNW,290,5.0,6.0,48,0.00,,,0.00,216,Wunderground v.1.15,2013-01-25 18:16:00,
2013-01-25 13:21:00,22.4,5.6,30.37,NW,312,1.0,3.0,48,0.00,,,0.00,195,Wunderground v.1.15,2013-01-25 18:21:00,
2013-01-25 13:26:00,21.4,3.8,30.37,SSW,202,1.0,4.0,46,0.00,,,0.00,179,Wunderground v.1.15,2013-01-25 18:26:00,
2013-01-25 13:31:00,21.4,4.3,30.36,SSW,204,0.0,1.0,47,0.00,,,0.00,174,Wunderground v.1.15,2013-01-25 18:31:00,
2013-01-25 13:36:00,21.6,4.4,30.36,SW,215,0.0,3.0,47,0.00,,,0.00,181,Wunderground v.1.15,2013-01-25 18:36:00,
2013-01-25 13:41:00,21.4,4.7,30.35,SSW,197,1.0,2.0,48,0.00,,,0.00,171,Wunderground v.1.15,2013-01-25 18:41:00,
2013-01-25 13:46:00,22.5,4.8,30.35,SW,231,0.0,2.0,46,0.00,,,0.00,186,Wunderground v.1.15,2013-01-25 18:46:00,
2013-01-25 13:51:00,21.7,4.1,30.34,SW,221,1.0,2.0,46,0.00,,,0.00,183,Wunderground v.1.15,2013-01-25 18:51:00,
2013-01-25 13:56:00,22.5,5.7,30.34,NW,309,1.0,3.0,48,0.00,,,0.00,183,Wunderground v.1.15,2013-01-25 18:56:00,
2013-01-25 14:02:00,22.5,4.8,30.34,WSW,250,1.0,2.0,46,0.00,,,0.00,178,Wunderground v.1.15,2013-01-25 19:02:00,
2013-01-25 14:07:00,22.5,6.2,30.34,West,276,1.0,2.0,49,0.00,,,0.00,171,Wunderground v.1.15,2013-01-25 19:07:00,
2013-01-25 14:12:00,23.3,5.5,30.34,West,277,0.0,2.0,46,0.00,,,0.00,137,Wunderground v.1.15,2013-01-25 19:12:00,
2013-01-25 14:17:00,22.9,5.2,30.34,WSW,245,1.0,2.0,46,0.00,,,0.00,116,Wunderground v.1.15,2013-01-25 19:17:00,
2013-01-25 14:22:00,23.1,5.4,30.34,WNW,300,0.0,2.0,46,0.00,,,0.00,125,Wunderground v.1.15,2013-01-25 19:22:00,
2013-01-25 14:27:00,23.0,5.3,30.34,NW,315,2.0,5.0,46,0.00,,,0.00,127,Wunderground v.1.15,2013-01-25 19:27:00,
2013-01-25 14:32:00,22.9,5.6,30.34,WNW,292,0.0,3.0,47,0.00,,,0.00,120,Wunderground v.1.15,2013-01-25 19:32:00,
2013-01-25 14:37:00,22.5,5.3,30.33,SW,219,1.0,3.0,47,0.00,,,0.00,120,Wunderground v.1.15,2013-01-25 19:37:00,
2013-01-25 14:42:00,22.2,5.5,30.33,SSW,204,1.0,3.0,48,0.00,,,0.00,183,Wunderground v.1.15,2013-01-25 19:42:00,
2013-01-25 14:47:00,23.2,6.4,30.32,WNW,300,1.0,3.0,48,0.00,,,0.00,225,Wunderground v.1.15,2013-01-25 19:47:00,
2013-01-25 14:52:00,23.6,6.3,30.32,NNE,13,1.0,2.0,47,0.00,,,0.00,207,Wunderground v.1.15,2013-01-25 19:52:00,
2013-01-25 14:57:00,24.2,6.8,30.32,NW,315,0.0,4.0,47,0.00,,,0.00,169,Wunderground v.1.15,2013-01-25 19:57:00,
2013-01-25 15:02:00,23.1,5.4,30.32,South,191,0.0,3.0,46,0.00,,,0.00,146,Wunderground v.1.15,2013-01-25 20:02:00,
2013-01-25 15:07:00,23.4,6.1,30.32,South,188,0.0,3.0,47,0.00,,,0.00,113,Wunderground v.1.15,2013-01-25 20:07:00,
2013-01-25 15:12:00,23.4,6.1,30.32,WNW,293,1.0,5.0,47,0.00,,,0.00,98,Wunderground v.1.15,2013-01-25 20:12:00,
2013-01-25 15:17:00,23.4,5.6,30.31,SSW,212,0.0,5.0,46,0.00,,,0.00,114,Wunderground v.1.15,2013-01-25 20:17:00,
2013-01-25 15:22:00,23.3,6.0,30.31,WSW,243,2.0,3.0,47,0.00,,,0.00,118,Wunderground v.1.15,2013-01-25 20:22:00,
2013-01-25 15:27:00,23.6,5.8,30.31,WNW,291,0.0,4.0,46,0.00,,,0.00,90,Wunderground v.1.15,2013-01-25 20:27:00,
2013-01-25 15:32:00,23.6,5.8,30.31,WSW,242,1.0,3.0,46,0.00,,,0.00,70,Wunderground v.1.15,2013-01-25 20:32:00,
2013-01-25 15:37:00,23.3,6.0,30.31,WSW,242,0.0,3.0,47,0.00,,,0.00,67,Wunderground v.1.15,2013-01-25 20:37:00,
2013-01-25 15:42:00,23.5,6.2,30.31,WSW,246,0.0,2.0,47,0.00,,,0.00,58,Wunderground v.1.15,2013-01-25 20:42:00,
2013-01-25 15:47:00,23.4,6.1,30.31,WSW,246,0.0,2.0,47,0.00,,,0.00,46,Wunderground v.1.15,2013-01-25 20:47:00,
2013-01-25 15:52:00,23.4,6.1,30.31,WSW,246,0.0,2.0,47,0.00,,,0.00,39,Wunderground v.1.15,2013-01-25 20:52:00,
2013-01-25 15:57:00,23.3,5.5,30.30,WSW,246,1.0,2.0,46,0.00,,,0.00,33,Wunderground v.1.15,2013-01-25 20:57:00,
2013-01-25 16:02:00,23.7,5.9,30.30,NW,319,2.0,2.0,46,0.00,,,0.00,28,Wunderground v.1.15,2013-01-25 21:02:00,
2013-01-25 16:07:00,23.8,5.5,30.30,SSW,194,0.0,3.0,45,0.00,,,0.00,32,Wunderground v.1.15,2013-01-25 21:07:00,
2013-01-25 16:13:00,23.9,5.6,30.30,SSW,194,0.0,2.0,45,0.00,,,0.00,40,Wunderground v.1.15,2013-01-25 21:13:00,
2013-01-25 16:19:00,23.9,5.1,30.30,SW,218,4.0,4.0,44,0.00,,,0.00,19,Wunderground v.1.15,2013-01-25 21:19:00,
2013-01-25 16:24:00,23.8,5.0,30.30,SSW,213,0.0,2.0,44,0.00,,,0.00,12,Wunderground v.1.15,2013-01-25 21:24:00,
2013-01-25 16:29:00,23.9,5.6,30.29,SSW,212,0.0,2.0,45,0.00,,,0.00,11,Wunderground v.1.15,2013-01-25 21:29:00,
2013-01-25 16:34:00,24.0,5.7,30.29,SSW,212,0.0,2.0,45,0.00,,,0.00,14,Wunderground v.1.15,2013-01-25 21:34:00,
2013-01-25 16:39:00,24.0,6.2,30.29,SSW,205,0.0,2.0,46,0.00,,,0.00,9,Wunderground v.1.15,2013-01-25 21:39:00,
2013-01-25 16:44:00,23.8,6.5,30.29,SSW,205,1.0,2.0,47,0.00,,,0.00,0,Wunderground v.1.15,2013-01-25 21:44:00,
2013-01-25 16:49:00,23.8,6.9,30.29,SSW,205,1.0,2.0,48,0.00,,,0.00,0,Wunderground v.1.15,2013-01-25 21:49:00,
2013-01-25 16:54:00,23.7,6.4,30.29,SW,215,3.0,3.0,47,0.00,,,0.00,0,Wunderground v.1.15,2013-01-25 21:54:00,
2013-01-25 16:59:00,23.6,6.3,30.29,SSW,202,1.0,3.0,47,0.00,,,0.00,0,Wunderground v.1.15,2013-01-25 21:59:00,
2013-01-25 17:04:00,23.5,6.2,30.29,SSW,202,1.0,3.0,47,0.00,,,0.00,0,Wunderground v.1.15,2013-01-25 22:04:00,
2013-01-25 17:09:00,23.4,6.1,30.28,South,177,0.0,3.0,47,0.00,,,0.00,0,Wunderground v.1.15,2013-01-25 22:09:00,
2013-01-25 17:14:00,23.3,6.5,30.28,South,188,0.0,3.0,48,0.00,,,0.00,0,Wunderground v.1.15,2013-01-25 22:14:00,
2013-01-25 17:19:00,23.2,6.8,30.28,SW,224,1.0,3.0,49,0.00,,,0.00,0,Wunderground v.1.15,2013-01-25 22:19:00,
2013-01-25 17:24:00,23.1,7.6,30.28,SW,224,0.0,2.0,51,0.00,,,0.00,0,Wunderground v.1.15,2013-01-25 22:24:00,
2013-01-25 17:29:00,22.9,8.3,30.27,WSW,247,0.0,1.0,53,0.00,,,0.00,0,Wunderground v.1.15,2013-01-25 22:29:00,
2013-01-25 17:35:00,22.6,9.6,30.28,SSW,205,3.0,4.0,57,0.00,,,0.00,0,Wunderground v.1.15,2013-01-25 22:35:00,
2013-01-25 17:40:00,21.9,12.3,30.28,SW,221,2.0,3.0,66,0.00,,,0.00,0,Wunderground v.1.15,2013-01-25 22:40:00,
2013-01-25 17:45:00,21.3,13.0,30.28,SW,221,0.0,3.0,70,0.00,,,0.00,0,Wunderground v.1.15,2013-01-25 22:45:00,
2013-01-25 17:50:00,20.9,13.9,30.27,SSW,210,0.0,1.0,74,0.00,,,0.00,0,Wunderground v.1.15,2013-01-25 22:50:00,
2013-01-25 17:55:00,20.7,14.9,30.27,SSW,200,1.0,4.0,78,0.00,,,0.00,0,Wunderground v.1.15,2013-01-25 22:55:00,
2013-01-25 18:00:00,20.4,15.5,30.27,South,179,1.0,2.0,81,0.00,,,0.00,0,Wunderground v.1.15,2013-01-25 23:00:00,
2013-01-25 18:05:00,20.3,15.7,30.26,SSW,198,0.0,3.0,82,0.00,,,0.00,0,Wunderground v.1.15,2013-01-25 23:05:00,
2013-01-25 18:10:00,20.4,16.3,30.25,SSW,198,1.0,1.0,84,0.00,,,0.00,0,Wunderground v.1.15,2013-01-25 23:10:00,
2013-01-25 18:15:00,20.5,16.4,30.25,SSW,198,0.0,1.0,84,0.00,,,0.00,0,Wunderground v.1.15,2013-01-25 23:15:00,
2013-01-25 18:20:00,20.3,16.2,30.24,SSW,198,0.0,0.0,84,0.00,,,0.00,0,Wunderground v.1.15,2013-01-25 23:20:00,
2013-01-25 18:25:00,20.3,16.5,30.24,SSW,198,0.0,1.0,85,0.00,,,0.00,0,Wunderground v.1.15,2013-01-25 23:25:00,
2013-01-25 18:30:00,20.3,16.5,30.24,SSW,198,0.0,0.0,85,0.00,,,0.00,0,Wunderground v.1.15,2013-01-25 23:30:00,
2013-01-25 18:35:00,20.3,16.8,30.23,SSW,198,0.0,1.0,86,0.00,,,0.00,0,Wunderground v.1.15,2013-01-25 23:35:00,
2013-01-25 18:40:00,20.3,16.8,30.23,SSW,198,0.0,1.0,86,0.00,,,0.00,0,Wunderground v.1.15,2013-01-25 23:40:00,
2013-01-25 18:45:00,20.2,16.4,30.24,SSW,198,0.0,1.0,85,0.00,,,0.00,0,Wunderground v.1.15,2013-01-25 23:45:00,
2013-01-25 18:50:00,20.3,16.8,30.23,SSW,198,1.0,2.0,86,0.00,,,0.00,0,Wunderground v.1.15,2013-01-25 23:50:00,
2013-01-25 18:55:00,20.2,16.4,30.23,SSW,198,0.0,2.0,85,0.00,,,0.00,0,Wunderground v.1.15,2013-01-25 23:55:00,
2013-01-25 19:00:00,20.2,16.4,30.23,SSW,198,0.0,0.0,85,0.00,,,0.00,0,Wunderground v.1.15,2013-01-26 00:00:00,
2013-01-25 19:05:00,20.2,16.4,30.23,SSW,198,0.0,2.0,85,0.00,,,0.00,0,Wunderground v.1.15,2013-01-26 00:05:00,
2013-01-25 19:10:00,20.2,16.4,30.23,SW,217,0.0,3.0,85,0.00,,,0.00,0,Wunderground v.1.15,2013-01-26 00:10:00,
2013-01-25 19:15:00,20.2,16.4,30.23,SW,217,1.0,3.0,85,0.00,,,0.00,0,Wunderground v.1.15,2013-01-26 00:15:00,
2013-01-25 19:20:00,20.2,16.4,30.23,SW,217,0.0,1.0,85,0.00,,,0.00,0,Wunderground v.1.15,2013-01-26 00:20:00,
2013-01-25 19:25:00,20.2,16.4,30.23,SW,217,1.0,2.0,85,0.00,,,0.00,0,Wunderground v.1.15,2013-01-26 00:25:00,
2013-01-25 19:30:00,20.3,16.5,30.23,WNW,288,0.0,1.0,85,0.00,,,0.00,0,Wunderground v.1.15,2013-01-26 00:30:00,
2013-01-25 19:35:00,20.2,16.4,30.22,West,275,0.0,2.0,85,0.00,,,0.00,0,Wunderground v.1.15,2013-01-26 00:35:00,
2013-01-25 19:40:00,20.3,16.8,30.22,West,275,0.0,0.0,86,0.00,,,0.00,0,Wunderground v.1.15,2013-01-26 00:40:00,
2013-01-25 19:45:00,20.2,16.7,30.22,West,275,1.0,2.0,86,0.00,,,0.00,0,Wunderground v.1.15,2013-01-26 00:45:00,
2013-01-25 19:50:00,20.2,17.0,30.22,WSW,250,0.0,2.0,87,0.00,,,0.00,0,Wunderground v.1.15,2013-01-26 00:50:00,
2013-01-25 19:55:00,20.3,17.0,30.21,WSW,249,1.0,3.0,87,0.00,,,0.00,0,Wunderground v.1.15,2013-01-26 00:55:00,
2013-01-25 20:00:00,20.2,17.0,30.21,WSW,250,0.0,1.0,87,0.00,,,0.00,0,Wunderground v.1.15,2013-01-26 01:00:00,
2013-01-25 20:06:00,20.3,17.0,30.21,WSW,250,0.0,2.0,87,0.00,,,0.00,0,Wunderground v.1.15,2013-01-26 01:06:00,
2013-01-25 20:11:00,20.2,17.0,30.21,WSW,250,0.0,0.0,87,0.00,,,0.00,0,Wunderground v.1.15,2013-01-26 01:11:00,
2013-01-25 20:16:00,20.2,17.0,30.21,WSW,250,0.0,2.0,87,0.00,,,0.00,0,Wunderground v.1.15,2013-01-26 01:16:00,
2013-01-25 20:21:00,20.2,17.0,30.21,WSW,250,0.0,1.0,87,0.00,,,0.00,0,Wunderground v.1.15,2013-01-26 01:21:00,
2013-01-25 20:26:00,20.2,17.2,30.21,WSW,250,0.0,1.0,88,0.00,,,0.00,0,Wunderground v.1.15,2013-01-26 01:26:00,
2013-01-25 20:31:00,20.1,17.1,30.20,WSW,250,0.0,2.0,88,0.00,,,0.00,0,Wunderground v.1.15,2013-01-26 01:31:00,
2013-01-25 20:36:00,20.2,17.2,30.20,WSW,250,1.0,2.0,88,0.00,,,0.00,0,Wunderground v.1.15,2013-01-26 01:36:00,
2013-01-25 20:41:00,20.2,17.2,30.20,WSW,250,0.0,2.0,88,0.00,,,0.00,0,Wunderground v.1.15,2013-01-26 01:41:00,
2013-01-25 20:46:00,20.2,17.5,30.20,WSW,250,0.0,2.0,89,0.00,,,0.00,0,Wunderground v.1.15,2013-01-26 01:46:00,
2013-01-25 20:51:00,20.2,17.5,30.20,WSW,250,0.0,3.0,89,0.00,,,0.00,0,Wunderground v.1.15,2013-01-26 01:51:00,
2013-01-25 20:56:00,20.3,17.6,30.20,WSW,250,1.0,3.0,89,0.00,,,0.00,0,Wunderground v.1.15,2013-01-26 01:56:00,
2013-01-25 21:01:00,20.4,17.7,30.20,WSW,250,1.0,2.0,89,0.00,,,0.00,0,Wunderground v.1.15,2013-01-26 02:01:00,
2013-01-25 21:06:00,20.6,17.9,30.19,WSW,250,0.0,2.0,89,0.00,,,0.00,0,Wunderground v.1.15,2013-01-26 02:06:00,
2013-01-25 21:11:00,20.5,17.8,30.19,WSW,250,1.0,1.0,89,0.00,,,0.00,0,Wunderground v.1.15,2013-01-26 02:11:00,
2013-01-25 21:16:00,20.6,17.9,30.19,WSW,250,0.0,2.0,89,0.00,,,0.00,0,Wunderground v.1.15,2013-01-26 02:16:00,
2013-01-25 21:21:00,20.7,18.0,30.19,WSW,250,0.0,0.0,89,0.00,,,0.00,0,Wunderground v.1.15,2013-01-26 02:21:00,
2013-01-25 21:26:00,20.7,18.2,30.18,WSW,250,0.0,0.0,90,0.00,,,0.00,0,Wunderground v.1.15,2013-01-26 02:26:00,
2013-01-25 21:31:00,20.7,18.2,30.18,WSW,250,0.0,0.0,90,0.00,,,0.00,0,Wunderground v.1.15,2013-01-26 02:31:00,
2013-01-25 21:36:00,20.9,18.4,30.18,WSW,254,1.0,2.0,90,0.00,,,0.00,0,Wunderground v.1.15,2013-01-26 02:36:00,
2013-01-25 21:41:00,20.9,18.4,30.18,WSW,258,1.0,2.0,90,0.00,,,0.00,0,Wunderground v.1.15,2013-01-26 02:41:00,
2013-01-25 21:46:00,20.8,18.3,30.18,NW,309,3.0,5.0,90,0.00,,,0.00,0,Wunderground v.1.15,2013-01-26 02:46:00,
2013-01-25 21:51:00,20.6,18.1,30.18,West,271,2.0,3.0,90,0.00,,,0.00,0,Wunderground v.1.15,2013-01-26 02:51:00,
2013-01-25 21:56:00,20.4,17.9,30.18,WNW,286,0.0,3.0,90,0.00,,,0.00,0,Wunderground v.1.15,2013-01-26 02:56:00,
2013-01-25 22:01:00,20.1,17.4,30.17,WNW,286,1.0,1.0,89,0.00,,,0.00,0,Wunderground v.1.15,2013-01-26 03:01:00,
2013-01-25 22:06:00,19.9,17.2,30.17,West,261,0.0,2.0,89,0.00,,,0.00,0,Wunderground v.1.15,2013-01-26 03:06:00,
2013-01-25 22:11:00,19.8,17.1,30.17,WNW,282,0.0,4.0,89,0.00,,,0.00,0,Wunderground v.1.15,2013-01-26 03:11:00,
2013-01-25 22:16:00,19.8,17.1,30.17,WNW,292,0.0,4.0,89,0.00,,,0.00,0,Wunderground v.1.15,2013-01-26 03:16:00,
2013-01-25 22:21:00,19.9,17.2,30.17,West,279,0.0,2.0,89,0.00,,,0.00,0,Wunderground v.1.15,2013-01-26 03:21:00,
2013-01-25 22:26:00,19.9,16.9,30.17,West,279,0.0,2.0,88,0.00,,,0.00,0,Wunderground v.1.15,2013-01-26 03:26:00,
2013-01-25 22:31:00,19.9,16.9,30.17,WNW,286,0.0,1.0,88,0.00,,,0.00,0,Wunderground v.1.15,2013-01-26 03:31:00,
2013-01-25 22:36:00,19.8,16.6,30.16,WNW,288,2.0,2.0,87,0.00,,,0.00,0,Wunderground v.1.15,2013-01-26 03:36:00,
2013-01-25 22:41:00,19.7,16.2,30.17,WNW,286,0.0,3.0,86,0.00,,,0.00,0,Wunderground v.1.15,2013-01-26 03:41:00,
2013-01-25 22:46:00,19.5,15.7,30.16,West,277,3.0,5.0,85,0.00,,,0.00,0,Wunderground v.1.15,2013-01-26 03:46:00,
2013-01-25 22:52:00,19.5,15.5,30.16,West,281,4.0,5.0,84,0.00,,,0.00,0,Wunderground v.1.15,2013-01-26 03:52:00,
2013-01-25 22:57:00,19.5,15.2,30.17,NW,304,4.0,6.0,83,0.00,,,0.00,0,Wunderground v.1.15,2013-01-26 03:57:00,
2013-01-25 23:02:00,19.4,15.1,30.16,West,271,0.0,6.0,83,0.00,,,0.00,0,Wunderground v.1.15,2013-01-26 04:02:00,
2013-01-25 23:07:00,19.4,15.1,30.17,WNW,300,2.0,6.0,83,0.00,,,0.00,0,Wunderground v.1.15,2013-01-26 04:07:00,
2013-01-25 23:12:00,19.3,15.0,30.17,West,267,4.0,4.0,83,0.00,,,0.00,0,Wunderground v.1.15,2013-01-26 04:12:00,
2013-01-25 23:17:00,19.1,14.5,30.17,WNW,290,4.0,8.0,82,0.00,,,0.00,0,Wunderground v.1.15,2013-01-26 04:17:00,
2013-01-25 23:22:00,19.1,14.2,30.17,WNW,296,4.0,5.0,81,0.00,,,0.00,0,Wunderground v.1.15,2013-01-26 04:22:00,
2013-01-25 23:27:00,19.0,14.1,30.17,NW,315,5.0,8.0,81,0.00,,,0.00,0,Wunderground v.1.15,2013-01-26 04:27:00,
2013-01-25 23:32:00,19.0,14.4,30.17,WNW,300,5.0,7.0,82,0.00,,,0.00,0,Wunderground v.1.15,2013-01-26 04:32:00,
2013-01-25 23:37:00,19.0,14.1,30.17,WNW,294,2.0,9.0,81,0.00,,,0.00,0,Wunderground v.1.15,2013-01-26 04:37:00,
2013-01-25 23:42:00,19.0,14.1,30.17,NW,304,1.0,3.0,81,0.00,,,0.00,0,Wunderground v.1.15,2013-01-26 04:42:00,
2013-01-25 23:47:00,18.9,14.3,30.17,NW,309,2.0,5.0,82,0.00,,,0.00,0,Wunderground v.1.15,2013-01-26 04:47:00,
2013-01-25 23:52:00,18.8,14.2,30.17,NW,315,1.0,5.0,82,0.00,,,0.00,0,Wunderground v.1.15,2013-01-26 04:52:00,
2013-01-25 23:57:00,18.7,14.1,30.17,NW,312,1.0,5.0,82,0.00,,,0.00,0,Wunderground v.1.15,2013-01-26 04:57:00,